When you browse on this site, cookies collect data to enhance your experience and personalize the content and advertising you see.
Visit our Privacy Policy to learn more. By continuing to use the site, you agree to this use of cookies and data.
  • In Latvia
  • List of Countries
  • For 7 days
  • Water Temperature
  • Weather Map
  • Weather Widgets
  • user-avatar
    Login

    Hourly Weather Ashtarak

    Today, 28 February, Friday

    Time Temperature Precipitation Wind Pressure Humidity
    00:00 +1°C° 0 mm 2 mps 657 mmHg 44%
    01:00 +1°C° 0 mm 2 mps 657 mmHg 45%
    02:00 +1°C° 0 mm 2 mps 656 mmHg 46%
    03:00 +1°C° 0 mm 2 mps 655 mmHg 46%
    04:00 +1°C° 0 mm 2 mps 655 mmHg 46%
    05:00 -1°C° 0 mm 2 mps 655 mmHg 46%
    06:00 -1°C° 0 mm 2 mps 655 mmHg 46%
    07:00 +1°C° 0 mm 2 mps 655 mmHg 46%
    08:00 +2°C° 0 mm 2 mps 655 mmHg 46%
    09:00 +4°C° 0 mm 2 mps 656 mmHg 47%
    10:00 +5°C° 0 mm 2 mps 656 mmHg 47%
    11:00 +5°C° 0 mm 2 mps 656 mmHg 47%
    12:00 +6°C° 0 mm 2 mps 656 mmHg 47%
    13:00 +7°C° 0 mm 2 mps 655 mmHg 47%
    14:00 +8°C° 0 mm 1 mps 655 mmHg 47%
    15:00 +8°C° 0 mm 1 mps 655 mmHg 46%
    16:00 +7°C° 0 mm 1 mps 655 mmHg 48%
    17:00 +6°C° 0 mm 1 mps 655 mmHg 49%
    18:00 +5°C° 0 mm 1 mps 655 mmHg 51%
    19:00 +4°C° 0 mm 1 mps 655 mmHg 53%
    20:00 +4°C° 0 mm 1 mps 655 mmHg 54%
    21:00 +2°C° 0 mm 2 mps 655 mmHg 56%
    22:00 +2°C° 0 mm 2 mps 655 mmHg 58%
    23:00 +2°C° 0 mm 2 mps 655 mmHg 59%

    Tomorrow, 29 February, Saturday

    Time Temperature Precipitation Wind Pressure Humidity
    00:00 +2°C° 0 mm 2 mps 654 mmHg 60%
    01:00 +2°C° 0 mm 1 mps 654 mmHg 61%
    02:00 +2°C° 0 mm 1 mps 654 mmHg 62%
    03:00 +2°C° 0 mm 1 mps 653 mmHg 63%
    04:00 +2°C° 0 mm 1 mps 653 mmHg 64%
    05:00 +2°C° 0 mm 1 mps 653 mmHg 65%
    06:00 +2°C° 0 mm 1 mps 653 mmHg 65%
    07:00 +3°C° 0 mm 1 mps 653 mmHg 64%
    08:00 +5°C° 0 mm 1 mps 653 mmHg 63%
    09:00 +6°C° 0 mm 1 mps 654 mmHg 62%
    10:00 +7°C° 0 mm 1 mps 653 mmHg 61%
    11:00 +7°C° 0 mm 1 mps 653 mmHg 59%
    12:00 +7°C° 0 mm 2 mps 653 mmHg 58%
    13:00 +7°C° 0 mm 2 mps 652 mmHg 58%
    14:00 +8°C° 0 mm 2 mps 652 mmHg 59%
    15:00 +8°C° 0 mm 2 mps 651 mmHg 59%
    16:00 +7°C° 0 mm 2 mps 651 mmHg 60%
    17:00 +7°C° 0 mm 2 mps 651 mmHg 61%
    18:00 +6°C° 0 mm 2 mps 651 mmHg 62%
    19:00 +5°C° 0.3 mm 2 mps 651 mmHg 69%
    20:00 +5°C° 0.3 mm 2 mps 651 mmHg 75%
    21:00 +4°C° 0.3 mm 2 mps 651 mmHg 82%
    22:00 +4°C° 0.2 mm 2 mps 651 mmHg 82%
    23:00 +4°C° 0.2 mm 2 mps 651 mmHg 82%

    Day after tomorrow, 1 March, Sunday

    Time Temperature Precipitation Wind Pressure Humidity
    00:00 +5°C° 0.2 mm 2 mps 651 mmHg 82%
    01:00 +4°C° 0.4 mm 2 mps 651 mmHg 83%
    02:00 +4°C° 0.4 mm 2 mps 651 mmHg 85%
    03:00 +4°C° 0.4 mm 2 mps 651 mmHg 87%
    04:00 +4°C° 0.1 mm 2 mps 651 mmHg 88%
    05:00 +5°C° 0.1 mm 1 mps 651 mmHg 90%
    06:00 +4°C° 0.1 mm 1 mps 651 mmHg 91%
    07:00 +5°C° 0.1 mm 1 mps 652 mmHg 89%
    08:00 +5°C° 0.1 mm 1 mps 652 mmHg 87%
    09:00 +6°C° 0.1 mm 1 mps 653 mmHg 85%
    10:00 +6°C° 0.1 mm 1 mps 653 mmHg 83%
    11:00 +7°C° 0.1 mm 1 mps 653 mmHg 81%
    12:00 +8°C° 0.1 mm 1 mps 653 mmHg 79%
    13:00 +8°C° 0.1 mm 1 mps 653 mmHg 76%
    14:00 +8°C° 0.1 mm 1 mps 652 mmHg 73%
    15:00 +9°C° 0.1 mm 1 mps 652 mmHg 71%
    16:00 +7°C° 0 mm 2 mps 652 mmHg 71%
    17:00 +6°C° 0 mm 2 mps 653 mmHg 71%
    18:00 +5°C° 0 mm 2 mps 653 mmHg 72%
    19:00 +5°C° 0 mm 2 mps 653 mmHg 72%
    20:00 +5°C° 0 mm 2 mps 654 mmHg 71%
    21:00 +4°C° 0 mm 2 mps 654 mmHg 71%
    22:00 +4°C° 0 mm 2 mps 654 mmHg 71%
    23:00 +3°C° 0 mm 2 mps 654 mmHg 72%

    2 March, Monday

    Time Temperature Precipitation Wind Pressure Humidity
    00:00 +3°C° 0 mm 2 mps 654 mmHg 72%
    01:00 +2°C° 0 mm 2 mps 655 mmHg 71%
    02:00 +2°C° 0 mm 2 mps 655 mmHg 71%
    03:00 +2°C° 0 mm 2 mps 655 mmHg 71%
    04:00 +1°C° 0 mm 2 mps 655 mmHg 71%
    05:00 +1°C° 0 mm 2 mps 655 mmHg 71%
    06:00 +1°C° 0 mm 2 mps 655 mmHg 71%
    07:00 +2°C° 0 mm 2 mps 656 mmHg 69%
    08:00 +4°C° 0 mm 1 mps 656 mmHg 67%
    09:00 +5°C° 0 mm 1 mps 657 mmHg 65%
    10:00 +5°C° 0 mm 1 mps 657 mmHg 64%
    11:00 +6°C° 0 mm 1 mps 657 mmHg 63%
    12:00 +7°C° 0 mm 1 mps 657 mmHg 63%
    13:00 +7°C° 0 mm 1 mps 657 mmHg 62%
    14:00 +7°C° 0 mm 1 mps 657 mmHg 62%
    15:00 +8°C° 0 mm 1 mps 657 mmHg 62%
    16:00 +7°C° 0 mm 1 mps 657 mmHg 64%
    17:00 +6°C° 0 mm 1 mps 657 mmHg 66%
    18:00 +6°C° 0 mm 1 mps 657 mmHg 68%
    19:00 +5°C° 0 mm 1 mps 658 mmHg 70%
    20:00 +4°C° 0 mm 1 mps 658 mmHg 72%
    21:00 +3°C° 0 mm 1 mps 659 mmHg 73%
    22:00 +3°C° 0 mm 1 mps 659 mmHg 73%
    23:00 +3°C° 0 mm 1 mps 659 mmHg 73%

    3 March, Tuesday

    Time Temperature Precipitation Wind Pressure Humidity
    00:00 +2°C° 0 mm 1 mps 659 mmHg 73%
    01:00 +2°C° 0 mm 1 mps 659 mmHg 74%
    02:00 +2°C° 0 mm 1 mps 659 mmHg 74%
    03:00 +2°C° 0 mm 1 mps 659 mmHg 75%
    04:00 +1°C° 0 mm 1 mps 659 mmHg 76%
    05:00 +1°C° 0 mm 1 mps 659 mmHg 76%
    06:00 +1°C° 0 mm 1 mps 660 mmHg 77%
    07:00 +2°C° 0 mm 1 mps 660 mmHg 74%
    08:00 +3°C° 0 mm 1 mps 661 mmHg 72%
    09:00 +4°C° 0 mm 0 mps 661 mmHg 69%
    10:00 +6°C° 0 mm 1 mps 661 mmHg 68%
    11:00 +6°C° 0 mm 1 mps 661 mmHg 67%
    12:00 +7°C° 0 mm 1 mps 661 mmHg 67%
    13:00 +8°C° 0 mm 1 mps 660 mmHg 65%
    14:00 +8°C° 0 mm 1 mps 660 mmHg 64%
    15:00 +9°C° 0 mm 1 mps 660 mmHg 62%
    16:00 +8°C° 0 mm 1 mps 660 mmHg 64%
    17:00 +7°C° 0 mm 1 mps 660 mmHg 65%
    18:00 +6°C° 0 mm 1 mps 660 mmHg 66%
    19:00 +6°C° 0 mm 1 mps 661 mmHg 65%
    20:00 +5°C° 0 mm 1 mps 661 mmHg 64%
    21:00 +5°C° 0 mm 1 mps 661 mmHg 63%
    22:00 +4°C° 0 mm 1 mps 661 mmHg 62%
    23:00 +4°C° 0 mm 1 mps 661 mmHg 61%

    4 March, Wednesday

    Time Temperature Precipitation Wind Pressure Humidity
    00:00 +4°C° 0 mm 1 mps 661 mmHg 60%
    01:00 +3°C° 0 mm 1 mps 661 mmHg 60%
    02:00 +3°C° 0 mm 1 mps 661 mmHg 59%
    03:00 +3°C° 0 mm 1 mps 661 mmHg 58%
    04:00 +2°C° 0 mm 1 mps 661 mmHg 58%
    05:00 +2°C° 0 mm 1 mps 661 mmHg 57%
    06:00 +2°C° 0 mm 1 mps 661 mmHg 56%
    07:00 +3°C° 0 mm 1 mps 661 mmHg 54%
    08:00 +5°C° 0 mm 1 mps 662 mmHg 52%
    09:00 +5°C° 0 mm 0 mps 662 mmHg 50%
    10:00 +6°C° 0 mm 0 mps 662 mmHg 52%
    11:00 +8°C° 0 mm 1 mps 662 mmHg 53%
    12:00 +9°C° 0 mm 1 mps 662 mmHg 55%
    13:00 +9°C° 0 mm 1 mps 661 mmHg 54%
    14:00 +10°C° 0 mm 1 mps 661 mmHg 53%
    15:00 +9°C° 0 mm 0 mps 661 mmHg 53%
    16:00 +9°C° 0 mm 1 mps 660 mmHg 53%
    17:00 +8°C° 0 mm 1 mps 660 mmHg 54%
    18:00 +7°C° 0 mm 1 mps 660 mmHg 54%
    19:00 +6°C° 0 mm 1 mps 660 mmHg 53%
    20:00 +6°C° 0 mm 1 mps 660 mmHg 52%
    21:00 +6°C° 0 mm 1 mps 660 mmHg 51%
    22:00 +5°C° 0 mm 1 mps 660 mmHg 51%
    23:00 +5°C° 0 mm 1 mps 660 mmHg 50%
    Show more